Location: Home
(42.5358°N, 72.7383°W)
Time: 06:42:19
(UTC-04:00)

Tiangong - Visible Passes

Search period start: 30 May 2024 00:00
Search period end: 09 June 2024 00:00
Orbit: 369 x 373 km, 41.5° (Epoch: 29 May)

Date Brightness Start Highest point End Pass type
(mag) Time Alt. Az. Time Alt. Az. Time Alt. Az.
30 May -0.5 02:36:56 26° E 02:36:56 26° E 02:38:28 10° E visible
30 May -2.1 04:08:53 10° W 04:11:50 56° SSW 04:14:52 10° ESE visible
31 May -2.3 03:08:00 69° SSE 03:08:00 69° SSE 03:10:57 10° ESE visible
31 May -1.3 04:41:28 10° W 04:44:13 29° SSW 04:46:57 10° SE visible
01 Jun -1.9 03:39:17 31° WSW 03:40:18 45° SSW 03:43:15 10° ESE visible
02 Jun 0.5 02:38:59 13° ESE 02:38:59 13° ESE 02:39:20 10° ESE visible
02 Jun -0.9 04:10:59 15° WSW 04:12:32 22° SSW 04:14:58 10° SSE visible
03 Jun 0.4 03:11:16 11° SE 03:11:16 11° SE 03:11:24 10° SE visible
04 Jun -0.8 21:45:19 10° SSW 21:47:21 21° SSE 21:47:21 21° SSE visible
05 Jun -1.8 22:16:51 10° WSW 22:19:31 43° S 22:19:31 43° S visible
06 Jun -1.3 21:12:56 10° SW 21:15:40 29° SSE 21:18:24 10° E visible
06 Jun -1.3 22:48:54 10° WSW 22:51:00 39° WSW 22:51:00 39° WSW visible
07 Jun -2.2 21:44:41 10° WSW 21:47:43 55° SSE 21:50:04 15° E visible
07 Jun 0.1 23:21:04 10° W 23:22:00 18° W 23:22:00 18° W visible
08 Jun -2.4 22:16:45 10° W 22:19:50 74° S 22:20:47 40° ESE visible
